GFSNIL_sfc_wetblb_024.txt.gz
Wetbulb
26.09 26.34 25.71 25.00 24.50 24.56 24.31 24.57 24.72 24.41 24.34 24.51 25.05 25.00 24.71 24.64 24.80 24.78 25.15 24.39 25.71 28.35
25.88 25.15 24.57 24.41 24.44 23.88 24.60 26.11 24.46 24.15 23.65 23.65 23.94 24.15 23.68 23.16 23.08 23.45 23.74 23.75 24.68 25.37
25.49 25.06 24.22 24.21 23.84 23.63 23.93 24.32 24.09 23.88 23.53 23.28 23.31 23.07 22.41 22.36 22.83 22.43 22.23 23.43 22.85 23.38
24.00 23.40 23.33 23.22 22.87 22.91 23.16 23.19 23.31 23.65 23.25 22.78 22.29 22.19 21.18 21.05 21.65 21.02 21.44 21.76 22.19 23.11
23.62 23.53 22.91 22.63 22.90 23.14 22.67 23.34 23.13 23.18 22.66 22.23 21.88 21.76 21.02 20.78 20.73 20.25 20.72 21.48 21.86 22.02
23.53 22.93 22.61 22.71 23.05 22.99 22.33 21.76 21.63 21.21 20.36 20.14 20.27 20.18 20.29 20.62 21.26 21.38 21.48 21.84 21.73 21.82
22.81 22.64 22.02 22.15 21.75 21.12 20.61 19.27 18.69 18.86 18.85 18.84 18.86 19.30 20.21 20.60 20.14 19.83 20.34 20.68 20.75 20.79
23.24 22.03 21.11 20.29 19.30 18.77 18.52 18.09 17.84 17.27 16.80 17.11 17.45 20.11 19.39 19.64 19.12 18.58 18.48 18.98 19.38 19.64
21.06 20.79 19.41 18.43 17.72 17.28 16.64 15.72 15.50 14.88 14.25 13.54 16.34 19.51 21.22 21.19 18.53 17.66 16.67 15.71 16.52 17.04
18.14 17.15 16.11 15.52 15.14 14.54 13.36 13.39 12.52 12.35 12.20 11.54 12.11 18.18 20.35 20.28 17.43 16.19 15.33 14.96 14.77 15.07
15.66 13.42 13.39 12.40 11.62 11.54 11.34 10.52 10.01 9.96 9.67 10.11 11.48 16.91 18.09 18.80 16.21 14.30 14.14 14.13 14.18 13.85
13.05 10.25 10.27 6.78 8.04 8.84 8.12 7.68 6.63 9.40 7.45 6.61 7.43 13.85 16.58 16.67 13.99 13.56 13.20 13.89 14.12 14.07
11.62 6.33 5.45 7.87 6.09 6.32 3.37 7.42 7.76 7.27 6.50 5.93 4.39 11.04 14.74 15.97 13.99 11.50 12.37 12.96 14.23 17.23
9.40 5.28 4.53 3.53 4.03 1.01 -0.10 4.37 0.79 2.82 3.46 3.32 4.82 5.37 13.65 16.73 15.20 13.75 12.96 13.82 14.62 15.72

GFSNIL_sfc_wetblb_027.txt.gz
Wetbulb
28.69 28.46 27.83 27.76 27.63 27.23 27.30 27.11 27.40 27.18 27.07 26.88 27.00 26.87 26.97 27.14 27.39 27.51 27.53 26.97 27.80 28.34
28.04 27.60 26.82 26.65 27.17 26.98 27.16 27.32 26.69 26.63 26.21 26.14 26.16 25.99 25.60 25.35 25.19 25.77 26.02 26.22 26.84 26.71
27.02 26.80 26.43 26.48 25.74 25.67 26.06 26.24 26.13 25.89 25.73 25.57 25.50 25.23 24.80 24.47 24.78 24.40 24.76 25.76 24.84 25.51
26.11 25.76 25.99 25.87 25.72 25.64 25.70 25.37 25.13 24.86 24.58 24.32 23.99 24.07 23.67 23.49 24.02 23.30 23.58 24.12 24.39 24.20
25.76 25.71 25.41 25.10 25.10 25.41 24.69 24.82 24.49 23.80 23.20 22.87 22.57 22.61 22.04 21.76 22.35 22.33 22.27 22.79 22.98 22.93
25.19 24.92 24.80 24.71 24.81 24.59 23.74 23.06 22.58 21.99 21.07 20.89 20.84 20.77 21.27 21.81 21.63 21.59 21.39 21.50 21.19 21.19
24.79 24.74 24.47 24.31 23.55 22.70 22.08 20.94 20.24 20.17 19.69 19.47 19.52 20.10 21.17 21.24 20.91 20.96 21.09 21.02 20.81 20.31
25.51 24.34 23.38 22.50 21.22 20.40 19.83 19.44 18.89 18.34 17.49 17.63 18.24 20.69 20.82 21.19 20.70 19.63 19.17 19.24 19.13 19.44
23.95 22.36 21.33 20.14 19.33 18.51 17.72 16.86 16.39 15.62 14.84 14.40 16.96 19.23 21.97 22.09 19.60 18.56 17.30 16.64 17.34 17.74
21.29 20.57 19.13 17.72 16.82 16.09 14.81 14.50 13.59 13.38 13.16 12.61 13.22 18.41 20.97 20.96 18.76 17.52 16.32 15.45 15.38 15.56
18.83 17.06 15.32 14.12 13.50 13.09 12.87 11.97 11.55 11.31 11.14 11.51 12.29 17.31 18.98 19.80 17.64 15.79 15.38 15.35 15.16 14.70
16.93 13.93 13.14 10.75 10.69 10.81 10.20 9.80 9.27 11.43 9.42 8.21 8.68 14.05 17.82 18.12 16.07 14.60 14.23 15.26 15.77 15.61
14.19 10.20 9.01 10.54 8.84 9.00 7.38 9.48 9.36 8.48 8.04 6.84 6.27 11.59 15.62 17.12 16.24 14.01 14.63 15.69 15.93 18.46
11.84 8.89 8.54 6.90 7.45 5.22 4.46 5.92 2.58 4.21 4.92 4.90 6.28 7.22 14.68 17.52 16.81 16.02 15.79 16.65 16.85 17.58

GFSNIL_sfc_wetblb_030.txt.gz
Wetbulb
35.51 35.28 34.61 34.21 33.84 33.39 32.99 32.32 32.42 32.05 31.68 31.20 30.99 31.11 31.33 31.05 30.66 30.76 30.72 30.42 30.97 30.82
34.15 33.67 32.92 32.95 33.34 32.99 32.72 31.48 31.52 31.53 31.27 31.11 30.74 30.64 30.89 30.42 29.61 30.00 29.79 29.89 29.86 29.51
33.15 33.12 32.98 33.04 32.23 31.95 31.39 31.38 31.15 30.97 30.86 30.43 30.21 29.95 30.05 29.73 29.78 29.30 29.94 29.47 29.10 29.47
32.30 32.40 32.70 32.29 32.03 31.73 31.29 30.97 30.20 29.56 29.17 28.64 28.33 28.28 28.35 27.98 27.91 27.06 27.51 28.44 27.82 27.67
32.22 32.10 32.12 31.86 31.51 31.19 30.40 29.68 28.96 28.08 27.64 27.12 26.74 26.65 26.19 25.82 26.16 25.59 25.64 26.03 25.85 25.82
31.54 31.75 31.78 31.04 30.46 29.91 29.02 28.30 27.26 26.50 25.79 25.26 25.04 24.78 25.06 25.31 25.08 25.15 25.16 25.14 24.53 24.48
31.45 31.48 31.26 30.51 29.46 28.43 27.60 26.66 25.68 25.09 24.34 23.87 23.64 23.67 24.46 24.48 24.72 24.83 24.80 24.58 24.09 23.45
31.38 31.08 30.37 28.79 27.49 26.01 25.11 25.22 24.42 23.51 22.40 22.30 22.20 23.59 23.69 24.22 24.17 23.49 23.04 23.14 22.81 22.80
30.49 28.86 27.44 26.72 24.89 23.74 23.04 22.24 21.62 20.72 19.96 19.63 21.04 19.86 21.96 23.05 22.62 22.11 21.21 20.68 21.12 21.31
28.62 27.02 26.28 24.83 22.86 21.83 21.21 21.05 19.62 19.20 18.76 18.27 18.78 18.38 21.30 21.73 21.28 20.97 20.61 19.45 19.08 19.12
27.12 26.20 24.57 21.98 20.82 20.82 20.06 18.96 18.51 18.10 17.40 17.24 17.59 17.84 19.31 20.61 20.71 20.08 19.55 19.14 18.70 18.29
25.95 24.28 22.04 19.60 19.31 19.32 18.44 17.57 16.96 16.78 16.00 14.49 15.00 15.85 18.11 19.15 19.42 18.89 18.31 18.85 19.19 19.19
25.02 22.36 20.14 19.36 17.77 18.22 16.98 16.20 15.87 15.44 14.91 12.86 11.70 14.22 16.54 18.64 19.24 18.02 18.49 19.24 19.84 21.38
21.85 19.60 19.13 17.58 16.80 15.00 14.12 13.56 12.58 11.71 12.88 11.50 11.58 12.66 15.98 18.42 18.93 18.70 18.77 19.38 19.42 20.23

GFSNIL_sfc_wetblb_033.txt.gz
Wetbulb
38.57 37.79 37.07 36.64 36.10 35.17 34.15 33.53 34.01 33.49 33.32 32.88 32.73 32.82 33.01 32.64 31.81 32.14 31.91 31.25 31.28 30.59
36.85 36.23 35.43 35.47 35.36 34.55 34.15 33.17 33.09 33.37 32.66 32.49 32.18 32.02 32.51 31.84 31.09 32.06 32.02 31.31 31.44 30.86
35.47 35.36 35.06 34.86 33.97 33.69 32.55 32.76 32.54 32.32 32.24 31.79 31.52 31.13 31.42 31.01 31.06 29.88 30.57 30.12 29.72 29.75
34.28 34.38 34.46 34.14 33.75 33.31 32.88 32.48 31.72 31.40 30.89 30.27 29.78 29.42 29.48 29.04 28.44 27.73 28.19 28.89 28.13 27.67
33.82 33.74 33.54 33.24 33.29 33.40 32.06 32.02 30.73 29.96 29.41 28.79 28.33 28.13 27.44 26.95 27.28 26.33 26.11 26.65 26.33 26.07
32.98 32.96 33.10 33.04 32.64 32.54 31.38 30.29 28.88 28.57 27.81 27.22 26.90 26.48 26.51 26.37 26.06 26.06 26.03 26.06 25.35 24.95
32.60 32.89 33.33 32.59 31.56 30.88 30.44 29.06 28.08 27.47 26.63 26.04 25.69 25.29 25.38 25.32 25.49 25.79 25.87 25.92 25.37 24.54
33.08 33.18 32.94 31.13 30.18 29.07 28.27 27.98 27.27 26.10 25.18 24.76 24.11 24.38 24.81 24.80 24.80 24.42 24.24 24.43 24.17 23.99
32.13 30.93 30.06 29.00 28.08 26.67 25.72 25.06 24.08 23.01 22.73 22.27 23.32 24.00 22.72 23.75 23.17 23.28 22.68 22.15 22.88 22.74
30.39 28.74 28.15 27.87 26.28 24.92 24.27 24.15 22.91 22.29 21.90 20.94 21.60 22.87 22.33 23.61 22.24 21.80 21.90 21.72 21.05 20.80
28.80 27.55 27.34 26.04 24.50 24.09 23.91 22.57 21.52 21.20 21.01 20.41 20.54 22.10 21.95 22.25 21.07 21.23 21.37 21.08 20.54 19.73
28.03 26.96 26.01 23.91 23.13 23.43 22.65 21.60 20.94 20.70 19.33 18.35 18.57 20.89 20.90 20.69 19.98 20.19 20.35 20.86 20.74 20.32
28.17 26.61 25.03 23.98 22.59 23.15 22.22 21.41 20.63 19.63 19.13 17.50 15.97 18.73 20.08 20.15 19.42 18.37 19.41 20.55 21.20 23.04
26.49 25.30 24.81 23.53 22.84 20.97 19.49 18.79 17.41 16.77 17.01 16.21 15.45 14.76 19.25 20.64 19.07 18.92 19.02 19.45 20.12 21.22

GFSNIL_sfc_wetblb_036.txt.gz
Wetbulb
34.08 32.53 31.94 31.59 30.65 29.56 28.66 28.59 29.12 28.73 28.43 28.36 28.50 28.42 28.19 26.66 26.17 26.03 25.61 25.28 25.65 25.80
32.15 31.63 30.86 30.91 30.36 29.17 28.92 30.00 28.91 28.35 27.71 27.64 27.55 27.36 27.13 25.78 24.94 25.31 25.51 24.93 25.17 25.23
31.41 31.18 30.70 30.09 28.62 28.52 27.72 28.21 27.78 27.39 27.14 26.72 26.11 25.92 25.62 24.66 24.44 23.95 23.84 24.77 23.76 23.66
29.70 30.09 29.89 28.64 28.31 27.51 27.35 27.54 27.05 26.70 25.98 25.47 24.74 24.49 23.68 23.37 23.53 23.07 23.18 23.27 22.98 22.92
29.22 28.67 28.26 28.08 28.08 27.40 26.76 26.68 25.87 25.76 25.03 24.56 24.17 23.85 23.29 22.92 23.01 22.19 22.32 22.65 22.47 21.88
27.47 27.38 27.40 27.14 27.13 27.05 26.02 25.11 24.82 24.51 23.69 23.60 23.52 23.15 22.93 22.98 22.88 22.83 22.76 22.64 22.09 21.58
26.96 27.11 27.22 26.86 26.44 26.04 25.50 24.19 23.48 23.46 23.09 22.98 22.86 22.94 22.55 22.82 22.60 22.55 22.89 23.33 22.83 21.85
27.38 27.51 27.19 26.31 25.86 25.34 24.76 24.19 23.47 22.69 22.29 21.96 21.93 22.80 21.64 22.43 21.93 21.78 21.59 22.04 22.48 21.91
27.60 27.19 26.46 25.93 25.42 24.27 23.68 22.81 22.12 21.52 20.97 19.98 22.51 25.01 25.00 23.59 21.99 22.44 21.86 20.91 21.12 21.14
27.14 26.24 25.84 25.45 24.21 23.01 21.79 21.52 20.43 19.99 19.78 19.26 19.64 25.08 25.38 24.68 22.67 21.31 20.50 20.63 21.10 20.95
25.99 25.18 23.90 23.45 22.47 21.16 21.18 20.16 19.32 18.96 18.85 18.64 19.33 24.94 25.25 24.33 21.37 20.14 20.13 20.23 20.20 19.68
25.52 23.53 23.33 22.30 21.01 20.60 19.76 18.47 17.51 18.13 16.36 16.21 16.50 24.21 24.66 23.19 19.26 19.23 19.21 20.58 20.36 19.74
24.26 23.75 23.20 22.68 20.33 19.44 17.35 19.24 19.12 18.30 16.08 15.40 12.28 21.98 23.44 22.87 18.63 12.02 17.31 18.65 20.55 22.84
24.10 24.04 23.81 21.26 18.04 17.90 15.92 17.76 14.71 15.01 12.96 12.01 13.30 13.69 21.61 23.08 19.60 16.87 15.39 16.61 17.94 20.10

GFSNIL_sfc_wetblb_042.txt.gz
Wetbulb
32.61 31.87 31.11 29.90 29.72 29.05 27.85 27.56 26.90 26.70 26.87 26.81 26.57 26.06 25.66 25.47 24.94 24.52 24.09 23.92 24.51 24.82
31.73 30.94 30.11 29.22 28.52 27.72 26.79 27.62 26.45 26.27 25.87 25.82 25.84 25.78 25.51 24.78 23.81 23.73 23.87 23.62 23.79 24.02
31.80 31.22 30.02 28.86 26.91 27.07 26.54 26.57 25.79 25.24 25.19 25.39 25.71 25.23 24.42 23.60 23.67 23.11 22.64 23.14 22.52 22.62
29.41 29.35 29.27 28.10 27.20 26.95 26.31 26.01 25.76 25.70 25.13 25.13 24.80 24.42 23.09 22.80 22.97 22.69 22.62 22.11 22.25 22.00
29.65 28.74 27.97 27.42 27.11 26.31 26.54 25.85 25.64 25.49 24.90 24.31 24.03 23.50 22.54 22.44 22.55 22.10 22.10 22.17 21.86 21.45
28.20 28.12 27.87 27.10 26.36 26.17 25.64 25.31 25.22 25.01 24.14 23.67 23.46 23.10 22.82 23.09 22.75 22.54 22.58 22.36 21.80 21.42
27.48 27.88 27.29 26.59 25.89 26.10 25.92 25.13 24.37 24.10 23.87 23.72 23.64 23.27 22.98 23.04 22.51 22.36 22.52 22.93 22.43 21.75
27.62 27.28 26.23 26.07 26.05 26.00 25.66 25.39 24.78 23.69 23.46 23.15 22.71 23.43 22.39 22.70 21.70 21.31 21.18 21.64 22.36 21.92
27.10 26.91 26.82 26.79 26.15 25.39 24.98 23.53 23.46 23.14 22.43 20.94 23.45 27.24 28.83 24.24 21.68 22.02 21.34 20.46 20.69 21.03
27.39 27.02 26.79 26.78 25.96 24.96 24.35 23.79 23.01 22.66 21.06 20.28 20.47 28.70 30.12 29.21 21.88 21.39 20.74 20.53 20.71 20.70
27.42 27.06 26.65 25.85 25.41 24.68 24.43 23.47 22.36 21.43 20.70 20.24 20.72 28.17 30.20 29.76 22.38 21.09 20.73 20.10 19.86 19.81
28.00 27.52 25.70 25.50 25.14 24.73 23.93 22.63 20.70 20.98 19.19 19.58 18.49 28.01 29.49 28.62 21.60 21.39 20.17 20.26 19.85 19.19
28.76 28.51 26.65 26.83 25.79 25.02 24.18 23.24 21.58 20.97 19.36 18.55 16.73 25.86 29.03 28.51 21.70 15.41 18.92 19.00 19.71 22.50
28.40 28.42 27.90 27.48 25.15 21.98 21.78 20.26 19.36 18.76 16.85 15.92 16.08 16.94 27.83 29.14 21.27 19.79 17.02 17.04 17.09 18.64

GFSNIL_sfc_wetblb_045.txt.gz
Wetbulb
35.41 34.96 33.77 31.65 30.55 29.98 28.68 27.18 26.86 26.81 26.68 26.28 26.50 26.23 25.60 25.81 25.10 24.70 24.32 24.20 24.34 24.58
34.64 33.67 32.28 29.32 28.94 27.90 26.46 27.77 25.95 26.01 25.83 25.38 25.84 25.75 25.34 25.31 24.01 23.90 23.93 23.93 24.09 24.21
32.73 32.56 31.51 29.36 27.85 26.90 26.13 26.62 25.99 25.58 25.66 25.42 25.44 25.37 25.04 23.99 23.70 23.47 22.97 23.40 22.93 23.06
29.90 30.53 29.39 28.69 27.67 26.85 26.75 26.08 26.05 26.04 25.67 25.65 25.09 24.52 23.89 23.55 23.30 23.11 22.79 22.24 22.36 22.17
29.56 28.78 28.27 27.65 27.06 26.72 26.34 26.11 25.97 25.72 25.83 25.49 24.97 24.21 23.77 23.19 23.03 22.41 22.32 22.24 21.88 21.25
28.61 28.15 27.79 26.98 26.58 26.79 26.02 25.52 25.46 25.54 25.22 24.95 24.68 24.06 23.41 23.76 23.33 22.88 22.95 22.57 21.55 21.17
28.07 28.46 28.11 27.20 26.30 26.48 25.96 25.43 25.37 25.40 24.95 24.95 24.72 24.55 24.05 23.72 22.91 22.70 22.90 22.99 22.40 21.47
28.61 28.67 27.42 26.14 26.24 26.07 25.63 26.08 26.05 24.75 24.34 24.29 24.61 24.91 24.14 23.66 22.48 22.08 21.26 21.63 22.43 21.88
27.87 27.43 27.19 26.94 26.35 26.12 25.73 24.93 24.88 24.43 23.98 23.46 25.00 28.57 29.42 24.80 22.43 22.23 21.18 20.34 20.56 21.17
27.79 27.16 27.10 26.94 26.09 25.75 25.14 24.99 24.35 23.90 23.59 23.41 23.95 29.63 30.81 30.05 22.25 21.75 20.73 20.58 20.98 20.82
27.84 27.43 26.70 26.34 25.86 25.25 25.06 24.13 23.81 23.45 23.69 23.55 23.10 29.56 31.10 31.33 22.57 20.89 20.79 20.55 20.72 20.10
28.07 27.37 26.33 26.06 25.50 25.26 24.94 24.19 23.92 24.70 23.86 23.14 22.76 29.11 30.74 30.08 23.24 22.47 21.54 21.19 20.34 19.69
28.57 28.33 26.96 26.88 26.00 26.15 26.17 25.42 24.64 24.46 24.25 23.20 23.40 27.53 30.34 29.94 23.40 20.47 21.35 20.72 20.72 23.44
28.39 28.69 28.03 27.79 27.13 26.38 25.64 24.87 24.11 23.54 23.05 21.85 21.49 21.12 29.58 30.91 23.96 23.05 19.93 19.64 19.39 19.88

GFSNIL_sfc_wetblb_048.txt.gz
Wetbulb
37.38 38.01 37.66 35.52 33.47 32.69 32.01 29.28 28.02 27.43 26.79 26.46 26.43 26.11 26.05 26.50 25.77 26.09 25.25 24.37 24.41 24.61
36.90 36.67 35.49 33.96 32.84 31.37 30.41 28.70 26.84 26.62 25.97 25.43 25.67 26.06 25.83 25.87 24.53 24.62 24.42 24.44 24.47 24.53
35.64 35.88 34.75 32.92 31.65 30.05 29.81 27.38 25.69 25.32 25.38 24.91 25.13 25.31 25.39 24.35 24.03 24.13 23.42 24.12 23.88 23.56
34.07 34.16 32.69 32.11 31.03 30.18 29.19 26.24 26.17 26.10 25.59 25.50 25.22 25.12 24.60 24.23 23.91 23.78 23.19 22.89 23.31 22.78
31.75 32.24 31.52 31.39 30.17 28.94 28.28 26.67 26.62 25.89 25.74 25.56 25.46 25.04 24.75 24.16 23.92 23.08 22.69 22.94 22.20 21.47
29.59 30.74 30.92 30.19 29.52 28.70 27.28 26.25 25.54 25.76 25.63 25.41 25.58 24.97 25.22 25.06 24.50 24.03 24.14 23.51 22.02 21.25
29.37 30.21 30.36 29.61 28.58 28.30 26.63 25.61 25.42 26.06 26.15 25.95 25.56 25.78 25.72 25.39 24.60 24.32 24.10 23.67 22.69 21.39
29.71 29.77 30.07 28.71 27.96 27.60 26.33 26.41 26.49 25.65 25.53 25.75 25.76 25.73 25.25 25.21 24.34 23.60 22.84 22.51 22.97 22.04
29.05 28.87 28.85 28.00 27.12 26.56 25.93 25.47 25.43 24.90 24.62 24.39 25.70 29.39 29.89 26.02 24.14 23.52 22.44 21.65 21.59 22.04
28.63 27.54 27.96 27.75 26.66 26.16 25.41 25.60 24.92 24.57 24.52 24.35 24.64 30.60 31.50 29.92 24.05 23.46 22.37 21.85 22.16 21.75
28.27 28.09 27.52 26.74 26.37 26.12 25.54 24.97 24.76 24.46 24.81 24.63 24.39 30.89 32.09 31.06 24.07 22.84 22.51 21.93 22.01 21.66
28.70 27.70 26.69 26.47 25.99 25.82 25.19 24.97 24.90 25.15 24.42 24.57 24.04 30.52 31.75 31.26 26.34 23.73 22.31 21.96 21.90 21.52
29.07 28.47 27.49 27.38 26.16 26.09 26.28 25.55 25.34 25.33 25.69 25.25 25.43 29.83 32.31 31.91 26.79 24.48 23.56 22.51 22.24 24.42
27.66 28.39 28.37 27.26 26.84 26.53 26.26 25.44 25.27 24.73 24.51 25.18 25.28 25.77 31.92 32.31 26.55 25.84 24.32 23.29 21.77 21.89